User: anonymous   Login
Location: Mascot Post Office (historical)
(40.2645°N, 99.5462°W)
Time: 23:51:04
(UTC+00:00)
Language:

SL-08 R/B - Orbit

View from above orbital plane
View from above orbital plane
View from above satellite
View from above satellite

Ground track
Ground track

The orbit data is extracted from the following two-line orbital elements,

1 27437U 02026B   20271.50131061 -.00000041  00000-0 -57068-4 0  9999
2 27437  82.9464 260.1482 0042376 270.0166  89.6135 13.76577308921242
Epoch (UTC): 27 September 2020 12:01:53
Eccentricity: 0.0042376
inclination: 82.9464°
perigee height: 945 km
apogee height: 1007 km
right ascension of ascending node: 260.1482°
argument of perigee: 270.0166°
revolutions per day: 13.76577308
mean anomaly at epoch: 89.6135°
orbit number at epoch: 92124

The dashed part of the orbit path shows where the satellite is in the earth's shadow,  

DLR